Volver al catálogo

COSMOS 2251 DEB

ActivoLEO
NORAD 35026·DEBRIS·🇷🇺 Russia

Lanzado Jun 16, 1993 desde Plesetsk Cosmodrome

Loading…

Próximos Pases (próximas 24 horas)

TLE

ActualizadoSource: Space-Track

Época: Sep 14, 2026, 10:09 UTC

1 35026U 93036AGP 26257.42316062  .00000113  00000-0  32725-4 0  9991
2 35026  74.0474 158.3070 0084014 202.7932 279.5045 14.53761226921494

Sigue COSMOS 2251 DEB en tiempo real con AllMySat

Download on the App Store